This demonstration page uses our WeatherBlox Daily Observations layout. Learn more.

Left ArrowRight Arrow

34.02893, -84.19858

Hourly Observations for October 7, 2015

Temp ( °F °C ) Dew Point ( °F °C ) Humidity (%) Winds ( mph kmh ) Pressure ( in mb ) Visibility ( mi km ) Precip ( " mm )
12:53 am 00:53 Mostly Clear 60 15.6 60 15.6 100 100 Calm 30.01 1016 8 13 0.00 0.00
1:53 am 01:53 Mostly Clear 60 15.6 60 15.6 100 100 Calm 30.01 1016 9 14 0.00 0.00
2:53 am 02:53 Clear 60 15.6 60 15.6 100 100 Calm 30.00 1016 7 11 0.00 0.00
3:53 am 03:53 Clear with Mist and Fog 59 15 59 15 100 100 Calm 30.00 1016 6 10 0.00 0.00
4:53 am 04:53 Clear with Mist and Fog 59 15 59 15 100 100 Calm 30.01 1016 5 8 0.00 0.00
5:53 am 05:53 Mostly Clear with Mist and Fog 57 13.9 57 13.9 100 100 Calm 30.02 1017 4 6 0.00 0.00
6:17 am 06:17 Clear with Mist and Fog 58 14.4 58 14.4 100 100 Calm 30.06 1018 2 3 0.00 0.00
6:22 am 06:22 Clear 57 14 57 14 100 100 Calm 30.06 1018 10 16 0.00 0.00
6:53 am 06:53 Clear 58 14.4 58 14.4 100 100 Calm 30.04 1017 10 16 0.00 0.00
7:53 am 07:53 Partly Cloudy with Mist and Fog 58 14.4 58 14.4 100 100 Calm 30.07 1018 6 10 0.00 0.00
8:53 am 08:53 Sunny 64 17.8 61 16.1 90 90 Calm 30.09 1019 10 16 0.00 0.00
9:53 am 09:53 Sunny 69 20.6 59 15 70 70 Calm 30.10 1019 10 16 0.00 0.00
10:53 am 10:53 Sunny 71 21.7 57 13.9 61 61 VRB 3 6 30.10 1019 10 16 0.00 0.00
11:53 am 11:53 Sunny 74 23.3 54 12.2 50 50 Calm 30.10 1019 10 16 0.00 0.00
12:53 pm 12:53 Sunny 77 25 52 11.1 42 42 ENE 3 6 30.09 1019 10 16 0.00 0.00
1:53 pm 13:53 Sunny 80 26.7 55 12.8 42 42 N 5 7 30.07 1018 10 16 0.00 0.00
2:53 pm 14:53 Sunny 81 27.2 55 12.8 41 41 Calm 30.04 1017 10 16 0.00 0.00
3:53 pm 15:53 Sunny 81 27.2 55 12.8 41 41 Calm 30.03 1017 10 16 0.00 0.00
4:53 pm 16:53 Sunny 81 27.2 56 13.3 42 42 S 3 6 30.03 1017 10 16 0.00 0.00
5:53 pm 17:53 Sunny 81 27.2 57 13.9 44 44 VRB 3 6 30.03 1017 10 16 0.00 0.00
6:53 pm 18:53 Sunny 74 23.3 62 16.7 67 67 Calm 30.04 1017 10 16 0.00 0.00
7:53 pm 19:53 Clear 67 19.4 63 17.2 87 87 Calm 30.05 1018 10 16 0.00 0.00
8:53 pm 20:53 Clear 64 17.8 62 16.7 93 93 Calm 30.06 1018 10 16 0.00 0.00
9:53 pm 21:53 Clear 64 17.8 61 16.1 90 90 Calm 30.07 1018 10 16 0.00 0.00
10:53 pm 22:53 Clear 62 16.7 61 16.1 96 96 Calm 30.08 1019 10 16 0.00 0.00
11:53 pm 23:53 Clear 62 16.7 61 16.1 96 96 Calm 30.09 1019 10 16 0.00 0.00

Powered by AerisWeather